Miscellaneous Local Product
Issued by NWS Hastings, NE

Home | Current Version | Previous Version | Graphics & Text | Print | Product List | Glossary On
Versions: 1 2 3 4 5 6 7 8 9 10 11 12 13 14 15 16 17 18 19 20 21 22 23 24 25 26 27 28 29 30 31 32 33 34 35 36 37 38 39 40 41 42 43 44 45 46 47 48 49 50
000
AXUS43 KGID 261702
MISGRI

GID CWA HOURLY WEATHER ROUNDUP
NATIONAL WEATHER SERVICE HASTINGS NE
1200 PM CDT SUN MAR 26 2017

NOTE: "FAIR" INDICATES FEW OR NO CLOUDS BELOW 12,000 FEET WITH NO
SIGNIFICANT WEATHER AND/OR OBSTRUCTIONS TO VISIBILITY.

...SOUTH CENTRAL NEBRASKA...

CITY           SKY/WX    TMP DP  RH WIND       PRES   REMARKS
GRAND ISLAND   CLOUDY    43  42  97 NW3       29.93F
HASTINGS       CLOUDY    45  41  86 N3        29.93F
KEARNEY        CLOUDY    45  39  81 CALM      29.92F
ORD            CLOUDY    43  38  82 CALM      29.92S
YORK           PTSUNNY   43  43 100 NW5       29.94S FOG
AURORA         CLOUDY    42  42  98 NW5       29.93F FOG
LEXINGTON      CLOUDY    42  39  89 E5        29.92S
HOLDREGE       CLOUDY    45  40  85 CALM      29.91S
HEBRON         CLOUDY    44  41  89 CALM      29.93S

...NEBRASKA PANHANDLE...

CITY           SKY/WX    TMP DP  RH WIND       PRES   REMARKS
CHADRON        CLOUDY    48  36  63 N15       29.92R
ALLIANCE       CLOUDY    49  34  56 N5        29.89R
SCOTTSBLUFF    PTSUNNY   52  32  46 N14       29.91R
SIDNEY         CLOUDY    45  37  73 S6        29.91R

...WESTERN AND NORTH CENTRAL NEBRASKA...

CITY           SKY/WX    TMP DP  RH WIND       PRES   REMARKS
VALENTINE      PTSUNNY   49  38  65 NE9       29.90R
AINSWORTH      CLOUDY    42  40  92 CALM      29.91S
ONEILL         CLOUDY    41  41  99 CALM      29.94R FOG
BROKEN BOW     CLOUDY    46  42  86 CALM      29.91R
IMPERIAL       LGT RAIN  42  39  89 NE6       29.90R
NORTH PLATTE   CLOUDY    44  39  82 VRB3      29.92R
MCCOOK         CLOUDY    42  40  92 N6        29.91R

...EASTERN NEBRASKA...

CITY           SKY/WX    TMP DP  RH WIND       PRES   REMARKS
NORFOLK        CLOUDY    41  38  89 NW6       29.93S FOG
SO SIOUX CITY  CLOUDY    44  38  79 NE5       29.93S
TEKAMAH        CLOUDY    44  39  82 N7        29.93S
COLUMBUS       CLOUDY    43  37  81 N6        29.95S
ALBION         CLOUDY    44  39  85 NW3       29.93S
OMAHA EPPLEY   CLOUDY    44  38  79 NW7       29.94R
OFFUTT AFB     CLOUDY    44  39  83 W5        29.93S
MILLARD        CLOUDY    45  41  85 NW5       29.94R
LINCOLN        CLOUDY    44  40  85 NW3       29.96R
NEBRASKA CITY  CLOUDY    43  41  92 NW5       29.94S
BEATRICE       CLOUDY    44  42  94 N5        29.93F FOG
FALLS CITY     CLOUDY    44  40  85 NW9       29.94R

...NORTHERN KANSAS...

CITY           SKY/WX    TMP DP  RH WIND       PRES   REMARKS
GOODLAND       CLOUDY    41  40  96 E12       29.85R
HILL CITY      CLOUDY    44  42  93 E13       29.90S
NORTON         CLOUDY    43  36  75 NE6       29.90S
PHILLIPSBURG   CLOUDY    46  43  87 NE6       29.92S
HAYS             N/A     46  41  82 E15       29.89S
RUSSELL        CLOUDY    46  42  86 E9        29.89S
CONCORDIA      CLOUDY    46  43  89 VRB3      29.92S
SALINA         CLOUDY    48  43  82 SE7       29.94R
TOPEKA         CLOUDY    49  44  83 CALM      29.94R



USA.gov is the U.S. government's official web portal to all federal, state and local government web resources and services.